When you browse on this site, cookies collect data to enhance your experience and personalize the content and advertising you see.
Visit our Privacy Policy to learn more. By continuing to use the site, you agree to this use of cookies and data.
  • In Hungary
  • List of Countries
  • For 7 days
  • Water Temperature
  • Satellite Maps
  • Weather Map
  • News
  • Weather Widgets
  • user-avatar
    Login

    Hourly Weather Nova Kakhovka

    Today, 22 January, Tuesday

    Time Temperature Precipitation Wind Pressure Humidity
    00:00 -7°C° 0 mm 5 mps 764 mmHg 80%
    01:00 -7°C° 0 mm 4 mps 764 mmHg 79%
    02:00 -7°C° 0 mm 4 mps 765 mmHg 79%
    03:00 -8°C° 0 mm 4 mps 765 mmHg 78%
    04:00 -7°C° 0 mm 3 mps 765 mmHg 78%
    05:00 -7°C° 0 mm 3 mps 765 mmHg 77%
    06:00 -7°C° 0 mm 3 mps 765 mmHg 76%
    07:00 -6°C° 0 mm 2 mps 765 mmHg 76%
    08:00 -6°C° 0 mm 2 mps 765 mmHg 75%
    09:00 -5°C° 0 mm 2 mps 765 mmHg 70%
    10:00 -4°C° 0 mm 2 mps 766 mmHg 64%
    11:00 -4°C° 0 mm 2 mps 766 mmHg 59%
    12:00 -3°C° 0 mm 2 mps 765 mmHg 56%
    13:00 -2°C° 0 mm 2 mps 765 mmHg 53%
    14:00 -2°C° 0 mm 2 mps 765 mmHg 50%
    15:00 -2°C° 0 mm 2 mps 764 mmHg 54%
    16:00 -3°C° 0 mm 2 mps 764 mmHg 59%
    17:00 -3°C° 0 mm 2 mps 764 mmHg 63%
    18:00 -4°C° 0 mm 3 mps 764 mmHg 66%
    19:00 -4°C° 0 mm 4 mps 763 mmHg 68%
    20:00 -5°C° 0 mm 5 mps 763 mmHg 71%
    21:00 -5°C° 0 mm 5 mps 763 mmHg 73%
    22:00 -5°C° 0 mm 5 mps 763 mmHg 74%
    23:00 -5°C° 0 mm 5 mps 762 mmHg 76%

    Tomorrow, 23 January, Wednesday

    Time Temperature Precipitation Wind Pressure Humidity
    00:00 -5°C° 0 mm 5 mps 762 mmHg 76%
    01:00 -4°C° 0 mm 5 mps 761 mmHg 75%
    02:00 -4°C° 0 mm 6 mps 761 mmHg 75%
    03:00 -4°C° 0 mm 6 mps 760 mmHg 77%
    04:00 -4°C° 0 mm 6 mps 760 mmHg 79%
    05:00 -4°C° 0 mm 5 mps 759 mmHg 81%
    06:00 -4°C° 0 mm 6 mps 759 mmHg 83%
    07:00 -3°C° 0 mm 6 mps 758 mmHg 85%
    08:00 -3°C° 0 mm 7 mps 758 mmHg 87%
    09:00 -3°C° 0.2 mm 7 mps 757 mmHg 87%
    10:00 -2°C° 0.2 mm 7 mps 757 mmHg 86%
    11:00 -2°C° 0.2 mm 7 mps 756 mmHg 86%
    12:00 -1°C° 1.1 mm 7 mps 756 mmHg 87%
    13:00 +1°C° 1.1 mm 6 mps 755 mmHg 88%
    14:00 +1°C° 1.1 mm 6 mps 754 mmHg 89%
    15:00 +1°C° 1.1 mm 6 mps 753 mmHg 90%
    16:00 +2°C° 1.1 mm 6 mps 753 mmHg 91%
    17:00 +2°C° 1.1 mm 5 mps 752 mmHg 92%
    18:00 +3°C° 0 mm 6 mps 752 mmHg 90%
    19:00 +3°C° 0 mm 6 mps 752 mmHg 88%
    20:00 +4°C° 0 mm 6 mps 752 mmHg 86%
    21:00 +4°C° 0 mm 6 mps 752 mmHg 87%
    22:00 +4°C° 0 mm 6 mps 753 mmHg 87%
    23:00 +4°C° 0 mm 6 mps 753 mmHg 88%

    Day after tomorrow, 24 January, Thursday

    Time Temperature Precipitation Wind Pressure Humidity
    00:00 +5°C° 0 mm 5 mps 753 mmHg 90%
    01:00 +3°C° 0 mm 5 mps 753 mmHg 91%
    02:00 +4°C° 0 mm 4 mps 753 mmHg 93%
    03:00 +4°C° 0.1 mm 4 mps 753 mmHg 94%
    04:00 +4°C° 0.1 mm 3 mps 753 mmHg 96%
    05:00 +4°C° 0.1 mm 3 mps 753 mmHg 97%
    06:00 +5°C° 0.3 mm 3 mps 753 mmHg 97%
    07:00 +5°C° 0.3 mm 3 mps 753 mmHg 97%
    08:00 +5°C° 0.3 mm 3 mps 753 mmHg 97%
    09:00 +5°C° 0.2 mm 3 mps 753 mmHg 96%
    10:00 +7°C° 0.2 mm 3 mps 753 mmHg 96%
    11:00 +7°C° 0.2 mm 2 mps 753 mmHg 95%
    12:00 +8°C° 0 mm 2 mps 753 mmHg 91%
    13:00 +9°C° 0 mm 2 mps 752 mmHg 88%
    14:00 +10°C° 0 mm 2 mps 752 mmHg 84%
    15:00 +9°C° 0 mm 2 mps 752 mmHg 86%
    16:00 +8°C° 0 mm 3 mps 752 mmHg 88%
    17:00 +7°C° 0 mm 3 mps 752 mmHg 90%
    18:00 +5°C° 0 mm 3 mps 752 mmHg 90%
    19:00 +4°C° 0 mm 3 mps 752 mmHg 90%
    20:00 +4°C° 0 mm 3 mps 752 mmHg 90%
    21:00 +3°C° 0 mm 3 mps 752 mmHg 91%
    22:00 +3°C° 0 mm 3 mps 752 mmHg 92%
    23:00 +2°C° 0 mm 3 mps 752 mmHg 93%

    25 January, Friday

    Time Temperature Precipitation Wind Pressure Humidity
    00:00 +2°C° 0 mm 3 mps 752 mmHg 93%
    01:00 +3°C° 0 mm 2 mps 752 mmHg 93%
    02:00 +3°C° 0 mm 2 mps 752 mmHg 93%
    03:00 +3°C° 0 mm 2 mps 752 mmHg 93%
    04:00 +2°C° 0 mm 2 mps 752 mmHg 93%
    05:00 +1°C° 0 mm 3 mps 752 mmHg 93%
    06:00 +2°C° 0 mm 2 mps 752 mmHg 93%
    07:00 +2°C° 0 mm 2 mps 752 mmHg 93%
    08:00 +3°C° 0 mm 2 mps 753 mmHg 93%
    09:00 +4°C° 0 mm 2 mps 753 mmHg 89%
    10:00 +5°C° 0 mm 2 mps 753 mmHg 84%
    11:00 +7°C° 0 mm 1 mps 753 mmHg 80%
    12:00 +8°C° 0 mm 1 mps 753 mmHg 77%
    13:00 +8°C° 0 mm 1 mps 752 mmHg 75%
    14:00 +8°C° 0 mm 0 mps 752 mmHg 72%
    15:00 +8°C° 0 mm 1 mps 752 mmHg 76%
    16:00 +7°C° 0 mm 1 mps 753 mmHg 80%
    17:00 +7°C° 0 mm 1 mps 753 mmHg 84%
    18:00 +6°C° 0 mm 1 mps 753 mmHg 85%
    19:00 +6°C° 0 mm 1 mps 753 mmHg 87%
    20:00 +6°C° 0 mm 1 mps 754 mmHg 88%
    21:00 +6°C° 0 mm 1 mps 754 mmHg 89%
    22:00 +6°C° 0 mm 1 mps 754 mmHg 91%
    23:00 +6°C° 0 mm 1 mps 754 mmHg 93%

    26 January, Saturday

    Time Temperature Precipitation Wind Pressure Humidity
    00:00 +6°C° 0 mm 1 mps 753 mmHg 93%
    01:00 +6°C° 0 mm 1 mps 753 mmHg 94%
    02:00 +6°C° 0 mm 1 mps 753 mmHg 94%
    03:00 +6°C° 0 mm 1 mps 753 mmHg 94%
    04:00 +6°C° 0 mm 1 mps 753 mmHg 94%
    05:00 +6°C° 0 mm 1 mps 752 mmHg 94%
    06:00 +5°C° 0 mm 2 mps 752 mmHg 94%
    07:00 +4°C° 0 mm 2 mps 753 mmHg 94%
    08:00 +3°C° 0 mm 3 mps 753 mmHg 95%
    09:00 +4°C° 0 mm 3 mps 752 mmHg 92%
    10:00 +5°C° 0 mm 3 mps 752 mmHg 90%
    11:00 +6°C° 0 mm 4 mps 752 mmHg 87%
    12:00 +7°C° 0 mm 4 mps 752 mmHg 85%
    13:00 +7°C° 0 mm 4 mps 751 mmHg 84%
    14:00 +7°C° 0 mm 4 mps 751 mmHg 82%
    15:00 +8°C° 0 mm 3 mps 751 mmHg 85%
    16:00 +7°C° 0 mm 3 mps 751 mmHg 89%
    17:00 +5°C° 0 mm 3 mps 751 mmHg 93%
    18:00 +5°C° 0 mm 3 mps 751 mmHg 93%
    19:00 +5°C° 0 mm 3 mps 751 mmHg 94%
    20:00 +5°C° 0 mm 3 mps 751 mmHg 94%
    21:00 +5°C° 0.1 mm 3 mps 751 mmHg 94%
    22:00 +5°C° 0.1 mm 3 mps 751 mmHg 94%
    23:00 +5°C° 0.1 mm 3 mps 751 mmHg 94%

    27 January, Sunday

    Time Temperature Precipitation Wind Pressure Humidity
    00:00 +5°C° 0.1 mm 3 mps 751 mmHg 94%
    01:00 +5°C° 0.1 mm 2 mps 750 mmHg 94%
    02:00 +5°C° 0.1 mm 2 mps 750 mmHg 94%
    03:00 +4°C° 0 mm 3 mps 750 mmHg 94%
    04:00 +4°C° 0 mm 3 mps 750 mmHg 94%
    05:00 +4°C° 0 mm 3 mps 750 mmHg 94%
    06:00 +4°C° 0 mm 3 mps 750 mmHg 93%
    07:00 +4°C° 0 mm 3 mps 751 mmHg 93%
    08:00 +4°C° 0 mm 3 mps 751 mmHg 92%
    09:00 +4°C° 0 mm 3 mps 751 mmHg 90%
    10:00 +4°C° 0 mm 3 mps 751 mmHg 88%
    11:00 +5°C° 0 mm 3 mps 751 mmHg 86%
    12:00 +6°C° 0 mm 2 mps 751 mmHg 83%
    13:00 +7°C° 0 mm 2 mps 751 mmHg 80%
    14:00 +8°C° 0 mm 1 mps 751 mmHg 77%
    15:00 +8°C° 0 mm 1 mps 751 mmHg 79%
    16:00 +8°C° 0 mm 1 mps 752 mmHg 82%
    17:00 +7°C° 0 mm 1 mps 752 mmHg 84%
    18:00 +7°C° 0.1 mm 1 mps 752 mmHg 86%
    19:00 +7°C° 0.1 mm 1 mps 752 mmHg 88%
    20:00 +6°C° 0.1 mm 1 mps 753 mmHg 90%
    21:00 +6°C° 0.1 mm 1 mps 753 mmHg 90%
    22:00 +6°C° 0.1 mm 1 mps 753 mmHg 91%
    23:00 +6°C° 0.1 mm 1 mps 754 mmHg 92%
    Show more